Location: Altoona
(40.5167°N, 78.4000°W)
Time: 13:25:36
(UTC-05:00)

Cosmos 1300 Rocket - Pass Details

Date: 21 August 2017
Orbit: 601 x 628 km, 82.5° (Epoch: 24 November)

Event Time Altitude Azimuth Distance (km) Brightness Sun altitude
Rises 21:11:41 0° 185° (S) 2,837 6.7 -13.1°
Reaches altitude 10° 21:13:53 10° 185° (S) 1,937 5.9 -13.4°
Maximum altitude 21:18:10 87° 96° (E) 608 3.4 -14.1°
Drops below altitude 10° 21:22:29 10° 8° (N) 1,954 6.4 -14.8°
Sets 21:24:43 0° 9° (N) 2,863 7.3 -15.2°
